Wetbulb
59.77 59.77 59.40 58.84 59.06 59.19 58.91 58.87 59.11 59.26 58.90 59.08 59.04 58.90 59.16 59.94 59.56 59.89 56.61 61.82 64.66 68.00 66.26 64.16 64.15 64.48 68.26 68.47 70.41 68.06 59.26 56.50 57.96 58.09 61.70 65.86 64.18 67.89 66.92 65.61 66.80 67.79 66.76 67.86 69.89
59.72 59.59 59.48 59.05 59.05 59.03 59.48 59.20 59.14 58.97 58.87 58.57 58.82 58.95 59.12 59.71 59.57 58.15 64.93 68.34 64.26 68.72 57.59 61.84 60.78 63.24 65.65 65.62 66.95 63.95 58.82 59.25 63.53 62.16 62.04 65.09 63.36 64.76 64.44 63.73 64.48 65.82 68.27 68.84 69.34
59.46 59.45 59.42 58.97 59.02 58.91 59.07 59.30 59.11 58.79 58.41 58.66 58.80 59.01 59.34 59.64 59.83 60.14 68.43 68.26 68.47 66.90 61.57 63.05 62.60 61.46 63.28 65.01 63.68 64.36 60.64 64.15 63.74 64.37 64.21 64.33 64.45 66.59 63.24 61.52 64.52 63.77 66.31 67.70 68.09
59.08 59.03 59.05 58.23 58.29 58.11 58.40 58.69 58.33 58.11 58.26 58.55 58.83 59.18 59.89 59.92 54.46 64.76 70.77 68.37 68.86 63.95 62.40 60.01 59.85 59.17 61.11 60.75 63.82 62.66 65.79 65.87 65.16 64.67 62.52 63.82 65.00 64.47 64.95 63.78 67.20 67.65 67.79 67.96 67.27
58.66 58.76 58.69 58.43 58.25 58.52 58.27 57.69 57.74 57.40 57.80 58.41 58.84 59.10 60.31 60.09 59.82 69.13 71.31 67.95 61.41 60.84 60.39 58.37 58.78 59.75 59.23 60.99 63.58 61.51 65.29 66.04 66.28 64.20 63.88 64.62 63.69 64.09 64.54 66.59 68.19 68.75 68.10 67.37 66.82
58.32 58.30 58.27 58.28 58.48 58.27 57.81 57.72 57.12 56.98 57.38 58.11 58.97 59.27 59.77 57.11 64.01 67.39 63.20 59.92 59.34 59.46 58.15 59.27 59.59 62.09 61.29 61.66 63.68 62.68 63.97 64.96 64.65 64.38 63.79 62.27 62.82 64.80 64.54 66.94 66.52 67.12 66.75 67.29 67.09
58.24 58.20 58.04 58.17 58.15 57.87 57.57 57.25 57.10 57.22 57.61 58.34 59.13 60.95 61.39 59.59 63.29 63.11 62.48 58.92 59.53 58.88 57.54 59.63 61.49 61.06 62.56 60.73 65.01 65.40 61.76 64.24 65.04 64.57 62.72 62.20 58.90 60.69 65.12 66.66 65.00 65.80 66.49 67.03 67.29
57.96 57.88 57.70 57.65 57.63 57.04 56.47 55.87 56.69 58.11 59.04 58.77 59.15 62.19 58.10 63.33 64.61 62.75 61.80 58.96 58.95 58.93 58.50 59.68 60.85 60.30 60.59 64.68 61.88 60.30 63.48 58.03 62.72 64.00 62.07 61.01 53.95 60.76 64.31 64.19 63.93 64.88 65.96 66.13 65.92
57.68 57.58 57.52 57.39 56.77 56.18 55.56 55.75 57.76 60.35 60.31 59.41 61.32 62.64 56.38 62.88 59.20 62.70 63.15 59.81 57.40 57.32 58.32 58.87 58.13 57.76 59.14 59.08 58.25 58.79 54.44 56.29 54.93 64.03 60.85 59.07 54.67 59.33 63.55 63.25 63.52 64.90 66.10 66.55 64.85
57.66 57.46 56.78 56.90 56.33 55.68 55.13 55.70 60.13 59.91 60.99 63.94 64.06 59.76 60.09 57.60 59.83 60.62 62.29 58.32 56.56 55.91 54.78 54.70 55.56 55.22 56.13 56.36 50.91 52.03 55.20 56.13 55.54 61.28 61.01 58.28 57.07 58.71 60.85 61.92 62.71 64.04 64.54 65.30 65.43
57.30 56.35 56.31 56.00 55.50 54.81 56.40 61.73 61.66 60.55 63.58 58.65 57.69 56.58 57.44 58.62 59.42 58.76 60.38 57.26 55.58 54.43 50.00 52.54 51.56 50.78 53.44 57.97 58.60 58.82 56.37 53.86 59.22 62.16 58.54 56.85 56.59 57.56 59.12 61.13 61.85 63.43 64.89 65.63 66.03
56.19 56.15 55.98 55.31 54.87 54.48 55.60 60.48 60.17 61.56 56.93 59.10 58.91 58.27 59.15 59.87 54.81 57.06 58.97 53.05 52.44 49.39 51.98 51.32 49.78 54.20 56.00 58.80 58.42 58.75 56.03 53.93 60.13 62.04 60.84 58.80 57.05 58.99 60.19 60.50 62.15 62.93 64.08 65.56 64.55
55.73 55.54 55.13 54.54 53.97 57.03 61.96 62.05 64.35 63.58 57.51 57.06 58.09 57.58 58.07 59.42 55.23 54.64 57.71 55.97 52.09 51.04 51.00 51.07 53.05 55.43 55.11 55.83 55.53 55.51 55.90 55.25 55.87 59.79 60.67 59.89 56.39 57.98 59.66 61.28 62.69 62.88 64.25 65.65 65.19
55.50 55.09 54.56 52.81 55.30 63.56 61.49 63.89 64.29 64.18 53.10 54.27 56.22 56.88 58.52 57.84 53.83 58.30 59.76 56.23 53.88 51.69 52.05 52.56 56.23 54.67 54.20 53.22 54.41 51.40 57.73 57.22 56.84 54.71 52.23 58.97 49.79 56.09 57.75 58.32 60.23 61.21 63.11 64.31 64.49
55.38 54.67 53.41 52.16 56.50 59.51 63.04 64.41 63.87 61.84 45.42 54.24 55.07 60.19 58.41 55.88 55.41 55.26 59.05 56.28 52.85 52.51 52.86 51.66 53.00 52.56 52.45 52.95 55.33 53.10 57.78 56.47 55.97 54.77 53.65 54.90 52.61 56.87 58.35 56.13 59.49 60.87 61.62 64.20 64.38
55.42 54.73 53.06 58.30 58.84 60.83 63.62 64.06 61.83 51.68 44.95 51.37 55.28 54.65 54.44 54.88 54.36 55.27 54.77 57.45 57.05 53.13 53.18 53.13 55.49 54.37 53.39 55.06 55.33 56.40 54.91 55.12 55.95 54.12 48.18 52.89 53.45 55.53 56.04 58.08 60.05 62.26 62.34 64.14 64.51
54.02 53.18 52.99 58.64 59.86 64.47 63.78 60.56 51.20 47.27 53.43 50.98 52.11 53.69 54.44 52.88 53.16 53.76 52.72 51.65 50.70 48.66 48.89 51.45 51.20 53.40 54.65 51.76 54.07 53.11 51.06 46.33 46.28 47.07 45.71 54.92 52.72 56.24 60.17 62.94 62.64 62.33 63.06 64.21 65.30
52.45 51.60 55.33 58.91 60.98 63.02 61.32 55.33 47.03 52.63 49.97 54.07 52.46 52.65 51.90 53.29 53.51 52.82 52.22 50.76 52.74 52.51 50.65 49.16 46.39 51.20 53.58 51.49 51.63 52.29 50.32 46.37 41.71 42.76 43.72 52.19 49.96 54.43 60.41 64.89 65.10 64.13 64.16 64.79 66.11
51.50 59.80 59.27 61.71 61.98 61.26 57.48 49.42 50.80 53.55 52.50 50.63 52.48 50.67 51.52 52.44 53.11 52.50 53.03 52.76 53.88 54.65 50.39 50.45 48.57 53.95 54.54 55.17 54.51 53.22 50.48 54.65 49.69 50.11 47.08 51.37 54.19 58.64 61.90 63.11 63.73 63.28 64.52 64.62 66.90
57.09 56.79 60.33 61.62 62.09 59.62 54.61 48.17 53.60 55.48 52.91 51.82 48.86 52.36 50.51 52.02 51.22 51.96 52.49 54.55 53.13 54.55 55.78 53.10 48.99 54.27 54.27 55.54 55.30 54.07 56.68 50.53 51.72 43.14 43.48 49.08 50.03 48.08 58.12 60.59 62.52 62.58 63.20 64.80 66.82
57.57 56.03 61.10 63.12 61.71 56.94 51.23 52.27 54.99 56.03 54.19 50.99 50.56 51.11 51.84 51.97 52.00 52.00 52.72 54.99 55.27 55.02 55.61 53.85 51.86 51.59 53.74 52.30 51.20 52.39 51.69 51.88 52.57 48.04 45.97 45.72 48.10 57.39 55.84 58.67 61.95 61.50 62.94 64.37 65.27
57.52 52.19 63.23 62.75 53.28 54.89 52.73 54.99 53.77 54.94 55.29 52.71 52.52 52.62 51.93 52.83 51.59 51.27 51.10 54.53 57.01 56.09 50.95 54.37 52.64 49.13 51.11 55.32 56.09 54.60 52.49 52.16 48.20 45.84 49.26 49.78 49.22 56.89 57.05 59.71 63.11 63.18 63.77 65.56 68.38
55.12 55.19 63.63 61.77 49.83 50.61 54.82 55.41 56.81 55.49 53.96 52.34 51.66 52.77 53.66 51.59 50.07 52.40 52.62 56.32 56.45 53.46 53.95 55.52 51.49 46.52 48.21 52.45 54.95 53.06 53.96 52.89 53.38 53.18 47.72 44.56 49.02 57.31 58.52 61.57 63.82 62.95 63.68 66.77 67.60
55.97 51.58 57.84 59.62 57.50 52.52 53.17 54.95 54.32 56.19 54.04 54.20 53.09 53.92 52.83 51.70 53.32 52.02 52.07 54.47 55.77 54.34 60.27 58.05 49.35 47.53 45.09 48.61 52.34 51.05 53.01 54.08 52.44 49.32 49.62 48.55 51.30 53.63 56.20 59.87 63.69 62.96 62.86 64.19 65.64
56.75 53.29 55.97 53.31 54.93 53.66 53.45 54.60 54.53 53.14 54.65 54.53 53.41 52.30 52.02 50.94 51.66 51.18 52.17 53.22 54.91 57.54 54.70 51.69 48.12 50.03 50.19 50.68 50.90 50.63 50.91 52.61 51.50 51.58 49.67 51.16 51.50 53.57 53.44 55.62 64.95 64.85 63.06 62.49 62.65
55.47 54.63 57.15 56.09 57.51 56.37 51.00 52.32 54.13 54.82 54.67 52.57 52.02 52.83 53.06 51.72 52.91 51.24 52.32 52.80 51.65 54.51 53.89 54.10 49.87 50.61 47.97 50.15 50.09 47.83 48.64 50.24 52.32 52.47 52.40 50.31 52.13 57.81 58.68 61.85 65.23 65.90 66.15 64.60 62.97
60.53 60.05 56.30 51.82 53.73 53.69 54.67 53.54 53.17 55.71 56.79 56.22 54.38 53.31 52.68 53.23 55.69 55.67 54.97 54.53 54.63 53.39 52.57 52.92 51.08 49.03 45.00 48.76 48.85 46.26 49.73 50.41 51.48 53.17 53.54 50.33 56.82 55.23 54.70 58.32 63.90 64.59 65.62 66.44 67.22
MSLP
1016.97 1016.68 1016.45 1016.27 1016.01 1015.73 1015.49 1015.20 1014.95 1014.74 1014.51 1014.34 1014.11 1013.80 1013.48 1013.09 1012.29 1011.53 1009.64 1008.39 1008.04 1008.02 1007.94 1006.98 1005.80 1004.95 1004.20 1003.33 1004.07 1007.29 1009.39 1009.31 1009.07 1009.23 1007.48 1006.24 1006.25 1006.57 1006.76 1005.81 1006.01 1006.47 1007.46 1008.51 1008.77
1017.03 1016.70 1016.43 1016.19 1015.93 1015.66 1015.39 1015.19 1014.91 1014.63 1014.37 1014.19 1014.01 1013.73 1013.46 1013.14 1011.70 1009.54 1008.13 1008.04 1008.00 1008.07 1007.54 1006.09 1004.64 1004.01 1003.27 1002.10 1002.71 1006.12 1007.52 1007.68 1007.72 1009.11 1008.65 1007.29 1007.82 1006.54 1006.54 1006.25 1007.23 1007.04 1007.99 1008.58 1008.83
1017.08 1016.78 1016.46 1016.16 1015.86 1015.56 1015.31 1015.07 1014.78 1014.47 1014.25 1014.06 1013.86 1013.62 1013.37 1013.05 1010.77 1007.45 1007.98 1007.95 1007.88 1008.01 1007.34 1005.97 1004.42 1003.51 1002.64 1001.65 1002.83 1004.47 1006.13 1006.42 1007.63 1008.42 1009.04 1008.14 1007.78 1006.63 1006.69 1006.50 1006.41 1007.70 1008.23 1008.80 1009.02
1017.05 1016.74 1016.42 1016.11 1015.79 1015.48 1015.17 1014.86 1014.60 1014.34 1014.04 1013.88 1013.73 1013.48 1013.21 1012.25 1008.51 1007.41 1007.80 1007.83 1007.95 1007.78 1006.99 1005.35 1004.41 1003.34 1002.29 1001.91 1002.35 1003.22 1004.42 1005.81 1007.50 1008.62 1008.92 1009.21 1009.54 1007.63 1007.49 1007.73 1006.67 1007.41 1008.45 1009.07 1009.20
1017.03 1016.70 1016.35 1016.01 1015.63 1015.26 1014.96 1014.70 1014.41 1014.08 1013.85 1013.67 1013.51 1013.31 1012.63 1010.17 1006.80 1007.21 1007.65 1007.89 1007.76 1007.45 1006.25 1004.83 1003.88 1002.87 1002.22 1002.72 1002.18 1004.10 1004.48 1005.96 1007.46 1008.91 1009.39 1009.97 1009.66 1009.24 1007.83 1008.49 1007.33 1007.66 1008.67 1009.08 1009.39
1017.04 1016.66 1016.30 1015.87 1015.44 1015.05 1014.74 1014.39 1014.05 1013.73 1013.55 1013.45 1013.29 1013.21 1011.70 1008.02 1006.12 1006.49 1006.71 1007.35 1006.76 1006.42 1005.26 1004.41 1003.42 1002.56 1002.36 1002.13 1002.56 1004.50 1005.98 1005.89 1007.43 1008.89 1010.41 1010.37 1010.72 1009.50 1008.52 1007.47 1008.15 1008.18 1009.02 1009.40 1009.55
1017.02 1016.59 1016.20 1015.74 1015.25 1014.86 1014.52 1014.07 1013.59 1013.36 1013.19 1013.13 1013.07 1012.48 1009.88 1006.67 1006.08 1006.17 1006.30 1006.19 1005.76 1005.39 1004.46 1004.12 1003.48 1003.06 1002.39 1002.73 1003.94 1003.89 1005.46 1006.75 1008.01 1009.51 1010.91 1011.42 1011.62 1011.10 1010.64 1010.00 1008.55 1008.93 1009.25 1009.65 1010.29
1017.02 1016.54 1016.08 1015.61 1015.11 1014.72 1014.29 1013.80 1013.24 1012.95 1012.81 1012.79 1012.86 1011.80 1007.69 1006.33 1006.08 1005.99 1005.54 1005.50 1005.47 1005.18 1004.68 1004.00 1004.09 1003.89 1002.97 1003.44 1003.98 1004.87 1004.84 1006.97 1009.16 1010.34 1011.85 1012.06 1012.96 1012.22 1012.16 1011.60 1009.71 1009.37 1009.73 1010.33 1011.14
1016.99 1016.45 1015.99 1015.46 1014.97 1014.52 1013.97 1013.42 1012.80 1012.51 1012.44 1012.46 1012.02 1009.94 1006.37 1006.64 1006.11 1005.26 1005.12 1004.77 1005.07 1005.14 1005.00 1004.75 1004.81 1003.96 1002.99 1003.23 1003.42 1004.46 1005.91 1008.18 1010.04 1010.77 1011.98 1012.61 1013.38 1013.71 1013.11 1012.60 1011.55 1010.21 1010.75 1011.04 1011.10
1016.91 1016.32 1015.85 1015.24 1014.74 1014.35 1013.56 1013.11 1012.31 1012.19 1012.00 1011.17 1009.82 1008.32 1005.63 1005.06 1004.98 1005.03 1005.17 1005.12 1004.80 1004.68 1004.68 1004.60 1004.13 1003.35 1002.63 1002.05 1003.31 1005.29 1007.05 1008.86 1009.67 1010.35 1011.09 1012.02 1012.84 1013.96 1013.46 1013.80 1013.03 1011.43 1011.06 1011.00 1011.97
1016.77 1016.25 1015.71 1015.07 1014.43 1014.28 1013.04 1011.81 1011.80 1010.83 1009.36 1007.05 1005.92 1004.97 1004.68 1005.15 1005.41 1005.17 1004.98 1004.79 1004.53 1004.34 1003.89 1003.76 1003.29 1002.29 1001.41 1002.01 1003.42 1004.82 1006.65 1007.72 1008.44 1009.30 1009.93 1011.10 1012.24 1012.86 1013.27 1013.96 1012.84 1012.44 1011.89 1011.35 1010.67
1016.78 1016.16 1015.53 1014.89 1014.13 1013.83 1013.72 1010.39 1008.14 1007.37 1006.31 1005.50 1005.23 1004.53 1004.58 1004.08 1004.34 1004.58 1004.68 1004.17 1004.08 1003.52 1003.17 1002.93 1002.32 1001.45 1000.95 1000.81 1002.62 1004.03 1005.34 1007.53 1006.89 1007.63 1008.07 1009.72 1011.14 1012.02 1012.94 1012.81 1012.45 1012.24 1012.00 1012.16 1012.72
1016.74 1016.10 1015.39 1014.65 1013.81 1012.86 1010.47 1007.93 1007.19 1006.68 1005.86 1004.19 1004.03 1003.62 1004.10 1003.85 1003.43 1004.01 1004.17 1003.40 1003.26 1002.72 1002.33 1001.48 1000.63 1000.85 1000.57 1001.09 1001.80 1002.00 1003.67 1005.32 1005.10 1005.51 1006.09 1008.09 1009.95 1011.23 1011.52 1011.67 1011.84 1011.73 1011.84 1012.65 1013.12
1016.66 1016.05 1015.44 1014.47 1013.60 1009.79 1007.87 1007.23 1006.72 1006.65 1005.25 1003.45 1003.13 1003.29 1003.54 1003.05 1003.22 1003.67 1003.53 1003.08 1002.48 1001.94 1002.01 1001.44 1000.76 1001.19 1001.35 1001.44 1001.41 1001.49 1002.64 1002.89 1003.25 1003.57 1004.76 1005.38 1007.39 1009.50 1010.27 1010.84 1010.78 1010.96 1011.28 1011.71 1013.22
1016.48 1015.90 1015.43 1015.59 1013.26 1009.67 1007.44 1006.88 1006.90 1006.39 1003.61 1002.49 1002.45 1003.19 1002.90 1002.71 1003.18 1003.51 1003.59 1003.24 1002.30 1002.01 1002.07 1000.94 1001.04 1001.69 1001.44 1001.05 1000.94 1001.06 1001.85 1002.36 1002.77 1002.76 1003.15 1003.84 1004.96 1006.65 1008.96 1009.51 1008.92 1009.47 1009.91 1011.10 1012.34
1016.16 1015.71 1015.21 1013.04 1012.97 1009.30 1007.68 1007.00 1006.63 1005.53 1002.35 1001.89 1002.16 1002.32 1002.26 1002.19 1002.53 1003.11 1003.44 1003.37 1002.44 1002.15 1002.14 1001.51 1001.58 1001.55 1001.19 1001.01 1001.12 1001.27 1001.46 1002.14 1002.26 1002.60 1002.94 1002.54 1003.78 1005.45 1007.19 1007.06 1007.40 1008.18 1009.46 1010.19 1010.89
1015.68 1015.36 1015.40 1013.13 1009.52 1007.66 1007.59 1006.99 1005.67 1003.51 1002.06 1001.42 1001.34 1001.79 1001.44 1001.69 1002.21 1002.55 1002.62 1002.52 1001.92 1001.72 1001.32 1001.16 1001.05 1001.39 1001.40 1001.20 1001.35 1001.74 1001.84 1001.82 1002.38 1003.29 1004.72 1003.22 1003.01 1003.52 1004.25 1004.81 1005.38 1006.75 1008.03 1009.27 1009.88
1014.80 1014.56 1012.48 1011.25 1008.92 1008.33 1007.82 1006.86 1004.79 1001.88 1001.36 1001.45 1001.60 1001.54 1001.01 1001.44 1001.66 1001.99 1001.91 1001.60 1001.60 1001.41 1000.40 1000.01 1000.31 1000.80 1001.10 1001.48 1000.78 1001.04 1001.59 1001.43 1003.35 1005.14 1007.13 1005.04 1003.53 1002.65 1002.29 1003.15 1004.53 1006.31 1007.16 1007.87 1008.39
1013.58 1011.42 1010.49 1009.06 1009.21 1008.79 1007.77 1005.67 1003.19 1001.44 1001.10 1001.32 1001.26 1001.33 1000.99 1001.57 1002.01 1001.72 1001.30 1001.05 1001.44 1001.75 1001.61 1000.73 1000.18 1000.61 1000.74 1001.02 1001.12 1001.00 1001.15 1001.64 1002.69 1005.26 1005.99 1004.76 1004.65 1003.28 1002.60 1003.43 1004.76 1005.89 1006.68 1007.29 1007.44
1013.71 1010.28 1007.68 1006.95 1007.74 1008.01 1007.06 1004.99 1002.90 1001.70 1001.85 1001.79 1001.16 1000.88 1000.54 1000.90 1001.62 1001.28 1001.45 1001.60 1001.87 1002.58 1002.43 1001.78 1001.23 1000.65 1000.45 1001.18 1001.19 1001.04 1002.12 1002.33 1002.52 1005.34 1005.72 1005.95 1005.98 1007.28 1005.17 1004.67 1005.42 1006.03 1006.29 1006.91 1007.04
1012.88 1008.72 1005.27 1006.45 1007.17 1007.03 1005.62 1004.10 1002.48 1001.67 1002.26 1002.03 1001.48 1001.12 1001.14 1000.96 1001.18 1001.32 1001.37 1002.16 1002.39 1002.45 1002.85 1002.57 1001.99 1001.12 1000.86 1000.79 1000.70 1000.73 1001.83 1003.01 1004.21 1007.08 1006.68 1006.69 1007.53 1008.04 1007.82 1007.56 1005.45 1005.79 1006.07 1005.90 1006.21
1011.62 1008.02 1005.64 1006.10 1006.48 1005.76 1004.68 1003.67 1002.40 1001.53 1002.15 1002.35 1002.24 1001.69 1001.37 1001.25 1001.46 1001.61 1001.46 1002.05 1003.23 1003.49 1003.39 1003.08 1002.72 1001.68 1001.00 1000.45 1000.56 1001.37 1002.12 1002.75 1003.86 1007.75 1008.47 1007.75 1007.96 1007.77 1008.65 1006.95 1005.56 1005.00 1005.59 1005.44 1006.33
1011.45 1007.28 1005.49 1005.72 1005.29 1004.57 1003.91 1002.99 1001.90 1001.38 1001.67 1002.10 1001.97 1002.01 1001.97 1002.05 1002.32 1002.20 1002.22 1003.08 1003.91 1004.32 1004.84 1004.43 1003.16 1002.54 1001.53 1001.17 1001.03 1001.44 1001.85 1002.55 1003.79 1005.68 1007.54 1008.14 1007.84 1007.59 1006.00 1005.93 1004.86 1005.49 1006.05 1006.57 1006.91
1012.19 1007.16 1005.18 1005.38 1005.02 1004.14 1002.88 1002.07 1001.70 1001.91 1001.76 1001.74 1001.96 1002.04 1002.48 1002.68 1002.53 1002.67 1002.67 1003.12 1004.24 1004.85 1005.61 1005.61 1004.67 1003.74 1002.87 1002.52 1002.39 1002.32 1002.28 1002.21 1003.56 1004.77 1006.06 1006.71 1006.85 1008.01 1007.54 1006.61 1005.32 1006.08 1006.50 1007.21 1007.22
1011.97 1007.49 1004.94 1003.97 1003.96 1004.05 1003.22 1002.22 1001.27 1001.48 1001.90 1002.15 1002.01 1002.32 1002.57 1002.52 1002.39 1002.67 1003.14 1003.17 1003.92 1004.95 1005.41 1005.46 1004.79 1004.39 1003.80 1003.27 1002.74 1002.44 1002.20 1002.57 1003.28 1004.22 1005.59 1006.31 1007.34 1007.94 1008.96 1007.59 1006.23 1006.71 1006.90 1007.49 1007.49
1011.68 1008.94 1006.94 1005.97 1004.16 1003.24 1002.97 1002.41 1001.48 1001.10 1001.22 1001.76 1002.18 1002.26 1002.48 1002.70 1002.60 1002.72 1003.05 1003.40 1003.72 1004.71 1004.78 1004.96 1004.90 1004.94 1004.52 1003.83 1003.20 1002.66 1002.35 1002.22 1002.54 1003.38 1004.41 1005.44 1006.82 1008.60 1009.96 1008.59 1007.85 1007.13 1007.12 1007.34 1007.91
1011.79 1010.67 1009.33 1007.24 1005.62 1004.02 1002.79 1002.13 1001.99 1001.53 1001.21 1001.14 1001.57 1002.06 1002.17 1002.49 1002.93 1003.24 1003.75 1004.02 1003.75 1003.95 1004.39 1004.77 1004.96 1005.24 1004.84 1004.36 1003.65 1002.75 1001.84 1001.91 1001.96 1002.09 1003.17 1003.86 1006.11 1009.07 1009.25 1010.14 1009.15 1008.91 1008.60 1008.10 1008.35
Wind_Speed
10 10 10 10 10 10 10 11 11 11 10 11 11 12 14 15 19 7 9 2 1 2 3 12 15 14 16 18 13 7 6 4 5 1 1 8 7 12 15 5 13 12 19 15 16
11 11 11 10 11 11 10 11 11 11 11 11 11 12 13 13 12 14 3 2 2 1 9 14 12 12 13 15 6 9 7 8 9 12 9 11 5 9 10 9 17 22 21 18 16
11 11 11 11 12 12 11 11 11 12 12 12 12 12 12 13 9 5 6 6 2 5 13 19 15 12 18 18 4 12 8 17 11 11 1 10 10 7 4 10 16 21 20 16 14
12 12 12 12 12 11 12 12 12 13 13 12 11 11 11 10 1 7 8 5 3 9 14 14 12 15 18 8 12 4 10 12 13 9 3 4 11 15 9 3 19 22 19 16 13
13 13 13 12 13 13 12 12 14 13 14 12 11 10 8 9 3 10 9 7 9 11 14 13 13 14 11 15 8 19 12 18 13 13 7 5 10 9 14 15 12 21 18 16 9
14 14 14 13 14 14 14 14 14 15 14 12 10 9 7 8 5 10 8 10 13 14 13 13 12 11 8 12 9 9 20 19 18 15 9 6 6 8 7 9 16 19 17 14 10
15 15 14 15 15 15 15 15 16 14 13 11 8 8 11 3 2 6 9 12 13 12 12 9 14 11 9 3 7 8 16 13 16 12 8 6 4 5 15 20 15 18 15 12 8
16 16 15 16 16 16 16 16 16 14 12 9 7 9 2 1 7 8 5 5 6 9 13 9 5 14 15 4 5 12 15 10 8 13 4 3 2 13 15 18 5 16 9 14 5
16 17 16 17 16 16 16 18 16 13 7 6 8 8 4 6 10 8 8 5 8 10 9 7 7 14 19 13 16 8 5 7 1 3 7 1 7 12 14 16 18 12 17 11 8
16 16 17 17 16 16 19 12 7 9 8 10 12 11 7 5 5 3 2 5 6 8 8 10 8 12 14 15 2 4 6 9 5 12 9 11 12 11 13 10 13 4 13 12 15
17 17 17 18 18 14 15 6 7 7 11 12 3 1 6 7 5 8 5 8 7 8 12 12 11 13 17 10 7 13 12 11 11 14 18 10 11 16 19 13 11 9 1 13 15
19 18 18 19 20 16 7 8 11 10 5 5 4 6 4 4 8 6 8 9 8 11 14 8 14 16 16 4 22 15 17 10 12 18 12 13 10 11 13 11 12 13 7 6 10
20 19 19 20 22 9 12 10 9 7 8 6 1 7 7 13 5 8 12 5 9 13 10 13 10 15 9 1 9 9 12 16 6 14 8 15 9 11 11 10 14 14 10 4 4
20 21 19 26 6 10 8 4 8 6 8 10 11 7 8 4 6 7 9 6 5 9 9 12 7 3 5 10 9 14 11 10 14 9 5 12 2 17 15 15 17 20 13 8 2
19 21 19 8 14 9 8 9 7 8 7 5 8 4 2 8 10 8 3 7 11 4 6 6 4 5 12 12 12 4 2 6 12 10 10 12 11 11 17 16 21 21 18 14 9
19 17 20 4 8 15 14 12 9 9 2 8 8 8 12 6 6 7 7 9 10 4 8 12 4 8 12 9 10 11 7 7 12 10 11 14 10 14 15 24 23 18 18 19 20
19 14 9 10 8 10 8 9 9 10 4 7 7 6 11 9 9 10 10 11 9 9 13 13 12 9 9 7 7 9 13 11 8 5 12 7 8 8 24 19 22 19 18 21 18
24 16 9 9 11 12 8 10 12 8 4 7 3 2 6 4 10 6 8 11 4 12 12 8 12 13 10 12 13 12 16 13 6 2 4 28 7 4 3 17 13 19 20 19 21
32 5 7 9 14 9 8 11 15 11 3 1 9 8 9 7 7 4 7 7 7 12 10 7 5 8 6 7 14 7 12 14 8 9 7 10 6 11 10 20 18 20 22 18 21
8 10 12 13 12 8 9 16 19 7 4 3 12 9 6 12 8 9 3 7 2 1 9 13 7 6 9 5 12 14 6 10 8 2 8 4 5 6 6 18 13 13 11 9 18
6 7 8 12 9 8 11 16 18 7 2 7 8 10 9 4 4 9 6 7 3 2 2 10 10 3 3 8 10 7 8 5 4 5 10 2 2 3 16 16 18 19 15 17 19
9 10 10 9 9 10 14 20 19 2 9 9 5 13 9 6 3 7 2 9 10 10 10 13 9 11 12 5 4 3 8 13 7 8 7 9 0 6 15 27 16 10 4 1 4
7 11 9 9 11 13 18 22 22 10 9 8 6 5 5 9 3 11 3 13 6 6 10 11 5 9 10 7 7 7 7 8 12 7 5 2 6 7 11 20 13 10 6 4 6
7 6 7 9 13 19 19 19 16 9 16 8 6 3 5 7 8 5 3 3 9 5 6 4 11 13 11 9 6 9 16 12 4 6 4 11 12 10 11 23 15 11 11 5 3
7 9 11 6 11 17 21 18 15 14 13 12 6 8 9 7 9 10 8 5 11 12 4 7 10 11 13 15 15 16 16 9 12 8 11 7 12 6 4 20 13 14 13 11 4
7 11 12 13 17 12 16 19 20 12 14 12 13 10 9 6 9 3 3 3 6 10 5 10 9 9 12 15 14 16 16 17 12 11 13 14 16 6 10 27 7 6 6 12 7
10 12 9 9 15 13 12 15 18 17 12 10 14 13 12 10 9 7 7 9 13 5 8 6 6 7 12 15 15 14 10 12 15 14 14 17 7 8 8 18 2 4 3 3 3
Wind_Direction
341 341 343 339 336 332 328 326 321 319 316 311 312 312 314 315 304 224 251 32 179 324 290 263 226 251 247 255 204 101 352 329 140 123 90 91 40 103 154 163 124 104 143 139 148
340 340 338 337 331 330 327 318 312 312 310 308 308 310 314 320 284 256 131 154 110 288 237 243 233 228 252 258 159 95 186 200 157 146 293 67 130 117 146 157 137 122 124 138 164
341 339 337 336 332 331 323 316 311 308 306 306 306 308 311 309 263 125 165 194 186 237 256 281 275 277 263 258 66 152 129 95 141 127 81 46 320 124 212 151 117 127 140 154 164
340 338 337 334 332 329 323 316 311 305 301 303 304 306 312 269 9 84 158 169 214 252 257 264 257 257 255 330 291 113 90 129 129 125 40 22 331 37 75 342 138 134 140 164 172
339 335 334 332 327 324 322 316 309 302 298 297 301 305 284 227 21 120 146 171 215 225 244 241 243 248 271 275 68 47 97 106 112 148 133 83 354 333 115 170 140 134 144 178 177
336 333 333 330 325 322 319 311 306 297 293 293 293 302 242 250 49 124 173 175 227 223 238 248 257 279 311 252 52 138 246 120 134 133 59 78 6 318 6 120 124 138 156 175 188
336 334 333 328 324 321 317 310 301 295 289 283 281 276 258 49 56 147 180 202 220 229 251 240 274 293 265 342 328 185 107 118 120 124 96 84 359 339 341 339 140 149 163 163 235
335 333 332 327 323 323 317 308 296 292 282 267 261 258 341 207 344 230 197 201 237 257 284 317 298 291 290 169 123 280 163 124 105 108 104 77 78 295 339 339 201 159 120 116 237
332 331 329 325 323 321 311 305 288 290 258 242 239 236 144 121 224 228 249 240 187 232 236 299 271 258 260 203 229 318 60 99 97 226 117 265 146 242 319 336 308 146 148 196 24
330 330 328 324 321 321 310 285 304 290 212 228 259 267 194 165 130 214 183 253 213 219 224 226 230 241 237 238 132 122 9 49 126 166 153 174 166 149 278 276 294 336 265 141 187
334 330 325 321 317 325 318 232 208 202 230 282 83 298 133 94 160 224 191 222 227 208 226 197 222 227 243 120 343 129 130 148 148 157 144 139 154 199 197 232 280 288 250 230 178
335 327 324 320 315 318 273 257 22 338 292 130 182 123 310 171 147 165 216 225 202 217 226 169 234 248 250 344 169 155 115 308 171 168 195 165 166 195 198 218 240 263 299 302 347
334 330 325 320 315 280 247 323 325 326 278 124 347 83 129 233 105 142 224 217 226 234 212 239 219 226 252 264 273 215 145 189 157 186 132 147 144 183 230 243 201 232 256 238 319
334 330 328 323 291 310 261 356 332 346 271 147 195 119 191 227 125 142 261 268 234 229 206 254 109 45 266 259 250 267 177 171 188 189 187 232 217 192 206 226 218 207 194 234 121
330 328 323 333 315 283 355 317 336 272 266 110 94 72 186 249 128 167 223 252 260 259 262 209 145 243 254 244 259 269 333 276 296 294 270 205 267 167 179 216 227 216 199 184 199
317 317 326 195 214 257 292 305 284 241 233 130 137 191 207 183 136 96 197 253 296 277 229 285 19 231 240 245 262 296 279 283 264 259 259 253 237 156 179 217 220 225 207 188 191
313 305 293 310 253 334 317 285 245 256 108 146 187 178 231 149 143 200 193 206 222 206 205 208 206 229 265 271 244 249 258 249 228 320 325 347 237 127 200 211 212 190 205 204 202
310 304 225 240 276 265 275 254 265 277 297 85 272 206 240 173 139 160 204 238 191 270 297 260 175 183 189 244 251 203 245 258 174 193 273 290 4 83 146 171 161 168 186 191 197
309 200 230 238 224 254 256 234 229 280 35 310 152 238 196 169 298 244 255 41 59 2 331 332 108 144 247 215 256 334 242 308 298 85 226 262 74 271 105 143 151 167 185 197 195
304 285 244 199 175 218 236 252 292 320 4 317 279 208 289 165 195 203 186 102 199 140 312 307 276 238 191 213 269 279 14 299 311 68 249 61 102 326 354 134 144 163 159 198 229
251 247 142 143 189 225 233 240 251 147 208 272 268 291 265 292 223 289 125 140 149 23 322 302 306 317 323 213 255 223 221 233 87 71 305 352 103 328 306 301 166 165 170 200 222
287 267 153 166 207 228 232 243 269 241 155 265 291 301 298 298 239 258 3 55 54 346 311 339 307 296 286 289 73 109 289 292 272 101 293 325 57 84 248 256 147 99 67 324 90
276 252 158 205 231 232 231 249 257 208 209 218 250 233 339 291 262 287 23 97 80 307 27 354 288 260 262 283 204 277 231 251 336 148 184 125 285 264 308 294 132 123 97 84 137
276 263 175 200 247 254 247 229 243 201 268 215 246 233 261 241 252 284 237 171 120 92 39 313 276 285 304 330 250 253 268 311 307 282 187 237 281 210 275 272 131 134 118 100 193
250 266 305 253 202 236 260 271 256 228 203 259 242 250 244 246 231 193 232 190 177 140 211 253 270 290 305 310 315 308 296 242 283 232 283 321 320 120 207 271 166 157 133 124 135
289 336 345 302 296 282 221 253 264 212 211 196 244 235 250 254 285 355 360 281 288 171 188 235 274 280 280 283 273 266 267 277 241 256 261 152 229 69 63 226 213 170 167 161 134
343 339 303 287 290 273 256 242 242 268 266 235 214 211 235 215 246 39 11 304 292 247 271 272 290 325 292 309 305 287 278 278 281 259 243 263 65 80 24 353 342 358 311 99 91